Regional Weather Roundup
Issued by NWS

Home | Current Version | Previous Version | Graphics & Text | Print | Product List | Glossary On
Versions: 1 2 3 4 5 6 7 8 9 10 11 12 13 14 15 16 17 18 19 20 21 22 23 24 25 26 27 28 29 30 31 32 33 34 35 36 37 38 39 40 41 42 43 44 45 46 47 48 49 50
000
ASUS43 KOAX 252202
RWRNE

WEATHER ROUNDUP FOR NEBRASKA
NATIONAL WEATHER SERVICE OMAHA NE
500 PM CDT WED MAY 25 2016

NOTES: SATELLITE DATA IS BEING USED TO AUGMENT CLOUD COVER ABOVE
       12000 FEET.
       "FAIR" INDICATES FEW OR NO CLOUDS BELOW 12,000 FEET WITH NO
       SIGNIFICANT WEATHER AND/OR OBSTRUCTIONS TO VISIBILITY.

  * THESE STATIONS DO NOT REPORT WEATHER SUCH AS RAIN...SNOW OR FOG.

NEZ001>004-019>022-054>056-252300-
NEBRASKA PANHANDLE

CITY           SKY/WX    TMP DP  RH WIND       PRES   REMARKS
SCOTTSBLUFF    CLOUDY    67  35  30 SW15      29.90F
ALLIANCE       CLOUDY    71  36  27 W16       29.90F
CHADRON        MOSUNNY   72  43  35 NW9       29.87F
SIDNEY         TSTM      56  46  69 NW15G25   29.97R
$$

NEZ057>060-069>072-079>082-252300-
SOUTHWEST NEBRASKA

CITY           SKY/WX    TMP DP  RH WIND       PRES   REMARKS
NORTH PLATTE   MOSUNNY   75  56  51 W8        29.87S
IMPERIAL       SUNNY     76  48  37 SE5       29.89F
LEXINGTON      SUNNY     77  57  49 CALM      29.85F
MCCOOK         SUNNY     80  51  36 S3        29.86S
$$

NEZ005>010-023>029-035>040-094-252300-
NORTH CENTRAL NEBRASKA

CITY           SKY/WX    TMP DP  RH WIND       PRES   REMARKS
VALENTINE      MOSUNNY   78  48  34 NW10      29.82S
AINSWORTH      CLOUDY    79  49  34 W13       29.82F
BROKEN BOW     MOSUNNY   79  57  46 NW8       29.85S
ORD            SUNNY     80  55  42 W6        29.82S
$$

NEZ041-046>049-061>064-073>077-083>087-252300-
SOUTH CENTRAL NEBRASKA

CITY           SKY/WX    TMP DP  RH WIND       PRES   REMARKS
GRAND ISLAND   PTSUNNY   78  60  53 NW3       29.84F
HASTINGS       SUNNY     75  64  68 VRB7      29.85F
KEARNEY *      MOSUNNY   77  61  57 NW3       29.86S
YORK           PTSUNNY   75  64  69 SW8       29.84F
$$

NEZ011>018-030>034-042>045-252300-
NORTHEAST NEBRASKA

CITY           SKY/WX    TMP DP  RH WIND       PRES   REMARKS
NORFOLK        MOSUNNY   80  58  46 W9        29.80F
ALBION         PTSUNNY   80  59  49 SW7       29.82F
BLAIR          CLOUDY    76  66  71 SW13      29.84S
FREMONT        CLOUDY    77  65  65 S10       29.84S
TEKAMAH        PTSUNNY   82  63  52 S14       29.82S
$$

NEZ050>053-065>068-078-088>093-252300-
SOUTHEAST NEBRASKA

CITY           SKY/WX    TMP DP  RH WIND       PRES   REMARKS
LINCOLN        CLOUDY    75  66  73 S10       29.85S
OMAHA EPPLEY   CLOUDY    78  66  66 S12       29.83S
FALLS CITY     PTSUNNY   79  66  64 S15G22    29.85S
PLATTSMOUTH    CLOUDY    77  68  72 S9        29.85S
$$

NEZ044-045-051>053-067-252300-
OMAHA AREA

CITY           SKY/WX    TMP DP  RH WIND       PRES   REMARKS
OMAHA EPPLEY   CLOUDY    78  66  66 S12       29.83S
BLAIR          CLOUDY    76  66  71 SW13      29.84S
FREMONT        CLOUDY    77  65  65 S10       29.84S
OFFUTT AFB     CLOUDY    77  66  69 SW8       29.83S
PLATTSMOUTH    CLOUDY    77  68  72 S9        29.85S
$$




USA.gov is the U.S. government's official web portal to all federal, state and local government web resources and services.